Date,TemperatureHighF,TemperatureAvgF,TemperatureLowF,DewpointHighF,DewpointAvgF,DewpointLowF,HumidityHigh,HumidityAvg,HumidityLow,PressureMaxIn,PressureMinIn,WindSpeedMaxMPH,WindSpeedAvgMPH,GustSpeedMaxMPH,PrecipitationSumIn
2013-10-1,79.3,65.1,56.2,69.9,62.1,56.2,100,91,65,30.07,29.98,7,0,12,0.00
2013-10-2,81.7,66.5,56.4,74.5,65.0,56.4,100,95,77,30.09,29.99,5,0,15,0.05
2013-10-3,83.7,71.6,64.6,73.1,68.8,64.0,100,92,64,30.06,29.96,3,0,9,0.61
2013-10-4,85.9,71.0,59.7,75.0,67.7,59.7,100,90,68,30.06,29.97,5,0,7,0.00
2013-10-5,76.2,69.1,64.5,72.9,68.5,64.3,100,98,88,30.02,29.91,6,0,10,1.73
2013-10-6,72.4,64.3,54.9,71.5,63.9,54.1,100,99,91,29.92,29.70,11,1,24,2.25
2013-10-7,62.5,53.4,46.0,54.3,48.6,45.5,98,85,63,30.15,29.84,10,1,14,0.00
2013-10-8,68.4,52.5,39.8,55.3,47.6,39.5,100,86,55,30.26,30.15,5,1,11,0.00
2013-10-9,74.7,55.4,41.6,59.4,50.1,41.3,100,85,50,30.22,30.12,3,0,7,0.01
2013-10-10,75.6,55.8,41.8,57.6,49.3,41.3,100,82,44,30.18,30.06,2,0,8,0.01
2013-10-11,80.1,57.1,44.4,62.3,51.5,43.9,100,85,47,30.10,29.99,2,0,3,0.00
2013-10-12,81.2,60.5,47.3,65.2,55.6,46.8,100,87,51,30.09,30.00,2,0,7,0.01
2013-10-13,76.2,62.3,53.0,66.9,58.5,52.7,100,89,62,30.24,30.09,5,0,10,0.00
2013-10-14,73.1,56.0,42.8,57.6,50.6,42.3,99,84,53,30.31,30.14,5,0,9,0.00
2013-10-15,74.9,62.1,50.5,67.1,59.5,49.7,100,92,76,30.16,29.92,4,0,10,0.00
2013-10-16,64.5,61.4,49.0,63.9,59.4,48.2,99,93,77,29.94,29.87,10,0,15,0.13
2013-10-17,57.7,48.5,41.8,53.0,46.6,41.3,100,94,76,29.99,29.88,8,1,13,0.06
2013-10-18,66.9,50.4,39.8,56.2,45.9,39.5,100,87,54,30.05,29.93,6,0,12,0.00
2013-10-19,51.9,46.4,35.9,47.8,45.0,35.3,99,95,79,30.01,29.83,7,1,15,0.17
2013-10-20,64.5,46.2,31.8,50.8,41.5,31.3,100,85,58,30.06,29.98,11,1,14,0.01
2013-10-21,66.5,51.7,34.6,52.5,44.2,34.1,100,78,51,30.02,29.89,9,1,16,0.01
2013-10-22,55.6,46.1,32.5,50.4,38.8,31.7,99,78,47,30.05,29.83,14,1,16,0.04
2013-10-23,48.3,44.2,37.9,44.7,39.2,34.5,94,83,63,30.06,29.72,15,2,17,0.02
2013-10-24,45.9,39.9,32.8,38.4,35.1,31.3,94,83,68,30.30,30.05,12,1,19,0.03
2013-10-25,50.1,35.9,25.5,36.0,30.1,24.5,98,82,48,30.47,30.30,9,0,11,0.01
2013-10-26,57.0,41.8,24.9,43.8,35.0,23.9,97,78,57,30.31,29.95,7,1,14,0.00
2013-10-27,62.0,44.4,32.4,46.2,38.2,31.6,99,82,45,30.12,30.03,3,0,7,0.00
2013-10-28,67.9,44.5,31.0,47.0,37.5,30.2,99,80,40,30.28,30.09,5,0,6,0.00
2013-10-29,57.2,44.7,32.3,52.5,42.1,31.5,98,91,80,30.35,30.18,3,0,5,0.05
2013-10-30,66.3,59.2,51.1,65.4,58.9,50.6,100,99,96,30.18,29.99,3,0,4,0.18
2013-10-31,66.7,63.5,58.4,65.6,61.3,56.7,99,93,85,29.99,29.36,14,1,31,0.83